Clermont County, Batavia, OH

3:46 PM EDT on April 29, 2017 (GMT -0400)
Clermont County, Batavia

Weather History for KI69 - April, 2014

Change the Weather History Date:

Monday, April 7, 2014

  Actual Average (KLUK) Record (KLUK)
Temperature  
Mean Temperature 52 °F -  
Max Temperature 59 °F 63 °F 86 °F (2001)
Min Temperature 46 °F 38 °F 22 °F (1982)
Degree Days  
Heating Degree Days 12    
Growing Degree Days 2 (Base 50)    
Moisture  
Dew Point 45 °F    
Average Humidity 81    
Maximum Humidity 100    
Minimum Humidity 47    
Precipitation  
Precipitation 1.14 in - - ()
Sea Level Pressure  
Sea Level Pressure 29.62 in    
Wind  
Wind Speed 4 mph (SE)    
Max Wind Speed 26 mph    
Max Gust Speed 41 mph    
Visibility 7 miles    
Events Rain    
Averages and records for this station are not official NWS values.
T = Trace of Precipitation, MM = Missing Value Source: NWS Daily Summary

Daily Weather History Graph

Daily Weather History Graph

Search for Another Location

Airport or City:

Trip Planner

Search our weather history database for the weather conditions in past years. The results will help you decide how hot, cold, wet, or windy it might be!

Date:

Astronomy

Apr. 07, 2014 Rise Set
Actual Time 7:12 AM EDT 8:06 PM EDT
Civil Twilight 6:44 AM EDT 8:33 PM EDT
Nautical Twilight 6:12 AM EDT 9:05 PM EDT
Astronomical Twilight 5:39 AM EDT 9:39 PM EDT
Moon 1:08 PM EDT (4/7) 2:41 AM EDT (4/7)
Length of Visible Light 13h 48m
Length of Day
12h 54m
First Quarter, 53% of the Moon is Illuminated
Apr 7
First Quarter
Apr 15
Full
Apr 22
Last Quarter
Apr 29
New
May 6
First Quarter

Hourly Weather History & Observations

Time (EDT) Temp. Dew Point Humidity Pressure Visibility Wind Dir Wind Speed Gust Speed Precip Events Conditions
12:15 AM 50.0 °F 33.8 °F 54% 29.93 in 10.0 mi Calm Calm - N/A   Clear
12:36 AM 50.0 °F 33.8 °F 54% 29.92 in 10.0 mi Calm Calm - N/A   Clear
12:56 AM 48.2 °F 35.6 °F 62% 29.91 in 10.0 mi Calm Calm - N/A   Clear
1:15 AM 50.0 °F 33.8 °F 54% 29.90 in 10.0 mi Calm Calm - N/A   Clear
1:36 AM 48.2 °F 33.8 °F 58% 29.88 in 10.0 mi Calm Calm - N/A   Clear
1:56 AM 50.0 °F 32.0 °F 50% 29.88 in 10.0 mi Calm Calm - N/A   Clear
2:15 AM 50.0 °F 33.8 °F 54% 29.87 in 10.0 mi Calm Calm - N/A   Clear
2:36 AM 48.2 °F 33.8 °F 58% 29.87 in 10.0 mi Calm Calm - N/A   Clear
2:56 AM 48.2 °F 33.8 °F 58% 29.85 in 10.0 mi East 3.5 mph - N/A   Clear
3:15 AM 48.2 °F 33.8 °F 58% 29.85 in 10.0 mi Calm Calm - N/A   Clear
3:36 AM 48.2 °F 33.8 °F 58% 29.82 in 10.0 mi Calm Calm - N/A   Clear
3:56 AM 46.4 °F 35.6 °F 66% 29.81 in 10.0 mi Calm Calm - N/A   Clear
4:15 AM 48.2 °F 33.8 °F 58% 29.80 in 10.0 mi SSE 3.5 mph - N/A   Mostly Cloudy
4:36 AM 50.0 °F 32.0 °F 50% 29.80 in 10.0 mi Calm Calm - N/A   Overcast
4:56 AM 50.0 °F 32.0 °F 50% 29.79 in 10.0 mi Calm Calm - N/A   Overcast
5:15 AM 50.0 °F 32.0 °F 50% 29.79 in 10.0 mi Calm Calm - N/A   Overcast
5:36 AM 50.0 °F 32.0 °F 50% 29.78 in 10.0 mi ESE 3.5 mph - N/A   Overcast
5:56 AM 46.4 °F 37.4 °F 71% 29.77 in 10.0 mi Calm Calm - N/A   Overcast
6:15 AM 50.0 °F 33.8 °F 54% 29.77 in 10.0 mi SSE 4.6 mph - N/A   Overcast
6:36 AM 51.8 °F 32.0 °F 47% 29.78 in 10.0 mi SSE 3.5 mph - N/A   Overcast
6:56 AM 51.8 °F 32.0 °F 47% 29.78 in 10.0 mi SSE 4.6 mph - N/A   Overcast
7:15 AM 51.8 °F 32.0 °F 47% 29.77 in 10.0 mi SSE 4.6 mph - N/A   Overcast
7:36 AM 53.6 °F 33.8 °F 47% 29.77 in 10.0 mi SSE 4.6 mph - N/A   Overcast
7:56 AM 53.6 °F 39.2 °F 58% 29.77 in 10.0 mi SE 6.9 mph - N/A   Overcast
8:15 AM 51.8 °F 44.6 °F 76% 29.76 in 10.0 mi SSE 10.4 mph - N/A   Overcast
8:36 AM 50.0 °F 44.6 °F 82% 29.74 in 5.0 mi SE 9.2 mph - N/A Rain Rain
8:56 AM 50.0 °F 46.4 °F 87% 29.73 in 5.0 mi SE 8.1 mph - N/A Rain Rain
9:15 AM 50.0 °F 46.4 °F 87% 29.73 in 10.0 mi East 3.5 mph - N/A Rain Rain
9:36 AM 50.0 °F 46.4 °F 87% 29.73 in 3.0 mi Calm Calm - N/A   Heavy Drizzle
9:55 AM 50.0 °F 48.2 °F 94% 29.72 in 1.5 mi Calm Calm - 0.02 in   Heavy Drizzle
10:15 AM 50.0 °F 48.2 °F 94% 29.70 in 0.8 mi East 4.6 mph - 0.02 in Rain Rain
10:36 AM 50.0 °F 50.0 °F 100% 29.67 in 1.2 mi East 6.9 mph - 0.05 in   Drizzle
10:55 AM 50.0 °F 50.0 °F 100% 29.67 in 2.0 mi East 5.8 mph - 0.06 in   Drizzle
11:15 AM 50.0 °F 50.0 °F 100% 29.64 in 3.0 mi East 3.5 mph - 0.01 in Rain Light Rain
11:36 AM 50.0 °F 50.0 °F 100% 29.63 in 4.0 mi ENE 4.6 mph - 0.01 in   Drizzle
11:55 AM 51.8 °F 50.0 °F 94% 29.63 in 2.0 mi East 3.5 mph - 0.02 in Rain Rain
12:15 PM 51.8 °F 51.8 °F 100% 29.61 in 2.5 mi NE 5.8 mph - 0.02 in Rain Rain
12:36 PM 51.8 °F 51.8 °F 100% 29.62 in 2.5 mi North 4.6 mph - 0.08 in Rain Heavy Rain
12:55 PM 51.8 °F 51.8 °F 100% 29.58 in 1.8 mi ENE 5.8 mph - 0.13 in Rain Rain
1:15 PM 51.8 °F 51.8 °F 100% 29.56 in 1.0 mi ENE 6.9 mph - 0.11 in Rain Rain
1:36 PM 51.8 °F 51.8 °F 100% 29.55 in 2.0 mi East 5.8 mph - 0.13 in Rain Rain
1:55 PM 51.8 °F 51.8 °F 100% 29.53 in 2.0 mi East 8.1 mph - 0.34 in Rain Rain
2:15 PM 51.8 °F 51.8 °F 100% 29.55 in 2.0 mi East 6.9 mph - 0.13 in Rain Heavy Rain
2:36 PM 51.8 °F 51.8 °F 100% 29.53 in 2.5 mi East 8.1 mph - 0.15 in Rain Rain
2:55 PM 51.8 °F 51.8 °F 100% 29.51 in 5.0 mi ESE 10.4 mph - 0.16 in   Light Drizzle
3:15 PM 51.8 °F 51.8 °F 100% 29.50 in 10.0 mi ESE 9.2 mph - N/A   Overcast
3:36 PM 53.6 °F 53.6 °F 100% 29.47 in 10.0 mi East 8.1 mph - N/A   Overcast
4:16 PM 53.6 °F 51.8 °F 94% 29.45 in 3.0 mi ESE 3.5 mph - N/A   Light Drizzle
4:36 PM 53.6 °F 51.8 °F 94% 29.43 in 3.0 mi ESE 6.9 mph - N/A   Drizzle
4:55 PM 53.6 °F 53.6 °F 100% 29.42 in 4.0 mi ESE 6.9 mph - 0.01 in   Overcast
5:16 PM 53.6 °F 53.6 °F 100% 29.41 in 4.0 mi SE 4.6 mph - N/A   Overcast
5:36 PM 53.6 °F 53.6 °F 100% 29.39 in 10.0 mi ESE 5.8 mph - N/A   Overcast
5:55 PM 55.4 °F 53.6 °F 94% 29.38 in 10.0 mi SE 5.8 mph - N/A   Overcast
6:16 PM 55.4 °F 55.4 °F 100% 29.37 in 10.0 mi SE 5.8 mph - N/A   Overcast
6:36 PM 55.4 °F 55.4 °F 100% 29.37 in 10.0 mi SE 6.9 mph - N/A   Overcast
6:55 PM 55.4 °F 55.4 °F 100% 29.35 in 10.0 mi SE 3.5 mph - N/A Rain Rain
7:16 PM 55.4 °F 55.4 °F 100% 29.35 in 0.5 mi WSW 6.9 mph - 0.35 in Rain Heavy Rain
7:36 PM 59.0 °F 59.0 °F 100% 29.37 in 10.0 mi WSW 17.3 mph 23.0 mph 0.40 in Rain Light Rain
7:55 PM 57.2 °F 55.4 °F 94% 29.38 in 10.0 mi West 12.7 mph 17.3 mph 0.40 in   Overcast
8:16 PM 57.2 °F 55.4 °F 94% 29.39 in 10.0 mi WSW 20.7 mph 25.3 mph N/A   Overcast
8:36 PM 57.2 °F 55.4 °F 94% 29.40 in 10.0 mi WSW 16.1 mph 24.2 mph N/A   Overcast
8:55 PM 57.2 °F 53.6 °F 88% 29.41 in 10.0 mi WSW 19.6 mph 26.5 mph N/A   Overcast
9:16 PM 55.4 °F 53.6 °F 94% 29.42 in 10.0 mi SW 17.3 mph 28.8 mph N/A   Drizzle
9:36 PM 55.4 °F 51.8 °F 88% 29.43 in 10.0 mi WSW 17.3 mph 28.8 mph N/A   Overcast
9:55 PM 55.4 °F 51.8 °F 88% 29.44 in 10.0 mi WSW 21.9 mph 27.6 mph N/A   Overcast
10:16 PM 53.6 °F 48.2 °F 82% 29.44 in 10.0 mi WSW 26.5 mph 35.7 mph N/A   Overcast
10:35 PM 53.6 °F 48.2 °F 82% 29.45 in 10.0 mi WSW 23.0 mph 33.4 mph N/A   Overcast
10:55 PM 51.8 °F 46.4 °F 82% 29.46 in 10.0 mi WSW 24.2 mph 33.4 mph N/A   Overcast
11:16 PM 51.8 °F 46.4 °F 82% 29.47 in 10.0 mi WSW 20.7 mph 41.4 mph N/A   Overcast
11:36 PM 50.0 °F 46.4 °F 87% 29.48 in 7.0 mi WSW 23.0 mph 34.5 mph N/A   Overcast
11:55 PM 48.2 °F 46.4 °F 93% 29.50 in 3.0 mi WSW 17.3 mph 27.6 mph N/A Rain Rain